Погода в Абу-Симбеле

Египет     22°22′27″N   31°36′18″E
темп.,
°C
ветер,
м/с
пор.,
м/с
влажн.,
%
обл.,
%
осадки,
мм/ч
давл.,
гПа
погр.,
м
16 сентября, чт
чт1623:00+30с46333 0.0 101070
02:00+29с814350 0.0 1010220
05:00+26ссв45435 0.0 101270
08:00+28ссв68335 0.0 1013454
11:00+32ссз56271 0.0 1012960
14:00+34сз791970 0.0 10081326
17:00+33ссз792151 0.0 10081051
20:00+29ссз611302 0.0 1010134
17 сентября, пт
пт1723:00+28с612323 0.0 1010158
02:00+26ссз611380 0.0 1010154
05:00+24с511410 0.0 1009155
08:00+27с79365 0.0 1011465
11:00+31с66280 0.0 10091117
14:00+33ссз66215 0.0 10071343
17:00+32ссз77222 0.0 10071005
20:00+28сз59314 0.0 100899
18 сентября, сб
сб1823:00+26ссз59355 0.0 1009120
02:00+25с47405 0.0 100986
05:00+24с45420 0.0 101065
08:00+27с56370 0.0 1011316
11:00+31ссз44305 0.0 10101083
14:00+33ссз342568 0.0 10071442
17:00+33ссз552498 0.0 10071217
20:00+29ссз573265 0.0 100965
19 сентября, вс
вс1923:00+28ссз44355 0.0 101034
02:00+26с44415 0.0 101040
05:00+25ссз33435 0.0 101027
08:00+28с34355 0.0 1012213
11:00+31ссз12305 0.0 10111162
14:00+33с02269 0.0 10081492
17:00+34сз22255 0.0 10081127
20:00+30сз44285 0.0 100919
20 сентября, пн
пн2023:00+29сз3430100 0.0 101016
02:00+27ссз2233100 0.0 100911
05:00+26сз223561 0.0 100911
08:00+29ссз222913 0.0 1011175
11:00+33св11245 0.0 1009962
14:00+34в112279 0.0 10071384
17:00+34ююв012363 0.0 100654
20:00+30сз11268 0.0 100711